| time (UTC) | temp C | wind direction | speed KPH | gust KPH | rain 1hr cm | rain 24hr cm | rain mn cm | humidity % | barometer mb |
| 20260502123028 | 4 | 348 | 1.6 | 6.4 | 0.00 | 0.00 | 0.00 | 82 | 1016.8 |
| 20260502121536 | 4 | 290 | 1.6 | 6.4 | 0.00 | 0.00 | 0.00 | 82 | 1016.3 |
| 20260502114521 | 4 | 259 | 3.2 | 6.4 | 0.00 | 0.00 | 0.00 | 82 | 1015.8 |
| 20260502113019 | 4 | 281 | 1.6 | 4.8 | 0.00 | 0.00 | 0.00 | 81 | 1015.8 |
| 20260502111518 | 4 | 327 | 1.6 | 3.2 | 0.00 | 0.00 | 0.00 | 81 | 1015.6 |
| 20260502110019 | 5 | 327 | 1.6 | 6.4 | 0.00 | 0.00 | 0.00 | 80 | 1015.4 |
| 20260502104512 | 5 | 322 | 0.0 | 0.0 | 0.00 | 0.00 | 0.00 | 80 | 1015.2 |
| 20260502103010 | 5 | 291 | 0.0 | 0.0 | 0.00 | 0.00 | 0.00 | 80 | 1015.2 |
| 20260502101512 | 5 | 292 | 1.6 | 4.8 | 0.00 | 0.00 | 0.00 | 80 | 1015.2 |
| 20260502091505 | 6 | 297 | 1.6 | 6.4 | 0.00 | 0.00 | 0.00 | 79 | 1015.5 |
| 20260502070043 | 7 | 265 | 4.8 | 8.0 | 0.00 | 0.00 | 0.00 | 77 | 1015.8 |
| 20260502064539 | 8 | 242 | 3.2 | 8.0 | 0.00 | 0.00 | 0.00 | 76 | 1015.8 |
| 20260502063042 | 8 | 250 | 1.6 | 6.4 | 0.00 | 0.00 | 0.00 | 75 | 1015.8 |
| 20260502061537 | 8 | 228 | 3.2 | 8.0 | 0.00 | 0.00 | 0.00 | 74 | 1015.7 |
| 20260502060033 | 8 | 208 | 1.6 | 8.0 | 0.00 | 0.00 | 0.00 | 73 | 1015.8 |
| 20260502054536 | 9 | 230 | 1.6 | 4.8 | 0.00 | 0.00 | 0.00 | 71 | 1015.8 |
| 20260502053026 | 10 | 233 | 1.6 | 3.2 | 0.00 | 0.00 | 0.00 | 69 | 1015.8 |
| 20260502051522 | 11 | 257 | 4.8 | 8.0 | 0.00 | 0.00 | 0.00 | 68 | 1015.6 |
| 20260502050029 | 11 | 233 | 3.2 | 9.7 | 0.00 | 0.00 | 0.00 | 67 | 1015.8 |
| 20260502044519 | 11 | 279 | 6.4 | 11.3 | 0.00 | 0.00 | 0.00 | 65 | 1015.6 |
| 20260502043019 | 12 | 279 | 8.0 | 17.7 | 0.00 | 0.00 | 0.00 | 63 | 1015.6 |
| 20260502041519 | 12 | 286 | 8.0 | 19.3 | 0.00 | 0.00 | 0.00 | 62 | 1015.6 |
| 20260502040018 | 12 | 288 | 9.7 | 14.5 | 0.00 | 0.00 | 0.00 | 64 | 1015.5 |
| 20260502034517 | 11 | 267 | 1.6 | 4.8 | 0.00 | 0.00 | 0.00 | 64 | 1015.4 |
| 20260502033016 | 11 | 221 | 0.0 | 0.0 | 0.00 | 0.00 | 0.00 | 62 | 1015.3 |
| 20260502031518 | 12 | 173 | 0.0 | 3.2 | 0.00 | 0.00 | 0.00 | 58 | 1015.2 |
| 20260502030016 | 13 | 288 | 1.6 | 11.3 | 0.00 | 0.00 | 0.00 | 57 | 1014.9 |
| 20260502024514 | 13 | 288 | 4.8 | 11.3 | 0.00 | 0.00 | 0.00 | 55 | 1014.7 |
| 20260502023014 | 13 | 280 | 3.2 | 9.7 | 0.00 | 0.00 | 0.00 | 53 | 1014.4 |
| 20260502021516 | 13 | 281 | 4.8 | 12.9 | 0.00 | 0.00 | 0.00 | 51 | 1014.2 |
| 20260502020013 | 14 | 281 | 4.8 | 8.0 | 0.00 | 0.00 | 0.00 | 49 | 1014.1 |
| 20260502014524 | 15 | 289 | 3.2 | 6.4 | 0.00 | 0.00 | 0.00 | 46 | 1013.9 |
| 20260502013011 | 15 | 259 | 3.2 | 4.8 | 0.00 | 0.00 | 0.00 | 44 | 1013.6 |
| 20260502011513 | 16 | 285 | 1.6 | 6.4 | 0.00 | 0.00 | 0.00 | 43 | 1013.5 |
| 20260502010012 | 16 | 300 | 4.8 | 9.7 | 0.00 | 0.00 | 0.00 | 42 | 1013.6 |
| 20260502004520 | 16 | 292 | 4.8 | 11.3 | 0.00 | 0.00 | 0.00 | 41 | 1013.5 |
| 20260502003009 | 16 | 274 | 4.8 | 12.9 | 0.00 | 0.00 | 0.00 | 41 | 1013.4 |
| 20260502001509 | 16 | 285 | 6.4 | 16.1 | 0.00 | 0.00 | 0.00 | 41 | 1013.4 |
| 20260502000009 | 16 | 285 | 3.2 | 9.7 | 0.00 | 0.00 | 0.00 | 41 | 1013.2 |
| 20260501234507 | 17 | 290 | 4.8 | 11.3 | 0.00 | 0.00 | 0.00 | 40 | 1013.2 |
| 20260501233007 | 17 | 326 | 1.6 | 9.7 | 0.00 | 0.00 | 0.00 | 40 | 1013.2 |
| 20260501231506 | 17 | 284 | 3.2 | 11.3 | 0.00 | 0.00 | 0.00 | 40 | 1013.1 |
| 20260501230003 | 16 | 282 | 3.2 | 12.9 | 0.00 | 0.00 | 0.00 | 42 | 1013.2 |
| 20260501224600 | 16 | 283 | 3.2 | 8.0 | 0.00 | 0.00 | 0.00 | 43 | 1013.3 |
| 20260501223107 | 16 | 319 | 0.0 | 11.3 | 0.00 | 0.00 | 0.00 | 44 | 1013.2 |
| 20260501221558 | 16 | 230 | 1.6 | 6.4 | 0.00 | 0.00 | 0.00 | 45 | 1013.2 |
| 20260501220105 | 16 | 350 | 1.6 | 6.4 | 0.00 | 0.00 | 0.00 | 46 | 1013.2 |
| 20260501214555 | 15 | 279 | 0.0 | 6.4 | 0.00 | 0.00 | 0.00 | 46 | 1013.3 |
| 20260501213110 | 15 | 288 | 1.6 | 9.7 | 0.00 | 0.00 | 0.00 | 46 | 1013.5 |
| 20260501211553 | 16 | 296 | 0.0 | 6.4 | 0.00 | 0.00 | 0.00 | 46 | 1013.6 |
| 20260501210051 | 16 | 5 | 1.6 | 4.8 | 0.00 | 0.00 | 0.00 | 48 | 1013.7 |
| 20260501204552 | 16 | 37 | 0.0 | 6.4 | 0.00 | 0.00 | 0.00 | 48 | 1014.0 |
| 20260501203048 | 16 | 13 | 1.6 | 9.7 | 0.00 | 0.00 | 0.00 | 48 | 1014.1 |
| 20260501201548 | 16 | 26 | 1.6 | 8.0 | 0.00 | 0.00 | 0.00 | 47 | 1014.3 |
| 20260501200047 | 16 | 61 | 3.2 | 12.9 | 0.00 | 0.00 | 0.00 | 48 | 1014.4 |
| 20260501194553 | 16 | 102 | 4.8 | 11.3 | 0.00 | 0.00 | 0.00 | 47 | 1014.5 |
| 20260501193047 | 16 | 16 | 1.6 | 6.4 | 0.00 | 0.00 | 0.00 | 48 | 1014.7 |
| 20260501191545 | 16 | 75 | 3.2 | 12.9 | 0.00 | 0.00 | 0.00 | 48 | 1014.7 |
| 20260501190043 | 16 | 306 | 3.2 | 8.0 | 0.00 | 0.00 | 0.00 | 48 | 1014.8 |
| 20260501184542 | 16 | 28 | 4.8 | 17.7 | 0.00 | 0.00 | 0.00 | 49 | 1014.9 |
| 20260501183044 | 15 | 346 | 8.0 | 16.1 | 0.00 | 0.00 | 0.00 | 51 | 1015.1 |
| 20260501181539 | 15 | 9 | 4.8 | 8.0 | 0.00 | 0.00 | 0.00 | 56 | 1015.3 |
| 20260501180040 | 15 | 28 | 1.6 | 8.0 | 0.00 | 0.00 | 0.00 | 54 | 1015.4 |
| 20260501174550 | 15 | 290 | 4.8 | 11.3 | 0.00 | 0.00 | 0.00 | 53 | 1015.5 |
| 20260501173047 | 14 | 294 | 0.0 | 6.4 | 0.00 | 0.00 | 0.00 | 53 | 1015.6 |
| 20260501171535 | 15 | 270 | 3.2 | 9.7 | 0.00 | 0.00 | 0.00 | 52 | 1015.7 |
| 20260501170031 | 15 | 23 | 1.6 | 8.0 | 0.00 | 0.00 | 0.00 | 56 | 1015.8 |
| 20260501164541 | 14 | 288 | 1.6 | 4.8 | 0.00 | 0.00 | 0.00 | 57 | 1015.7 |
| 20260501163027 | 13 | 328 | 1.6 | 9.7 | 0.00 | 0.00 | 0.00 | 59 | 1015.7 |
| 20260501161525 | 13 | 360 | 0.0 | 6.4 | 0.00 | 0.00 | 0.00 | 60 | 1015.7 |
| 20260501160025 | 13 | 12 | 1.6 | 6.4 | 0.00 | 0.00 | 0.00 | 60 | 1015.6 |
| 20260501154533 | 13 | 79 | 3.2 | 11.3 | 0.00 | 0.00 | 0.00 | 59 | 1015.4 |
| 20260501153023 | 12 | 92 | 0.0 | 6.4 | 0.00 | 0.00 | 0.00 | 63 | 1015.4 |
| 20260501151514 | 12 | 148 | 4.8 | 11.3 | 0.00 | 0.00 | 0.00 | 63 | 1015.4 |
| 20260501150011 | 12 | 62 | 1.6 | 6.4 | 0.00 | 0.00 | 0.00 | 64 | 1015.2 |
| 20260501144510 | 12 | 41 | 3.2 | 11.3 | 0.00 | 0.00 | 0.00 | 64 | 1015.1 |
| 20260501143009 | 12 | 43 | 3.2 | 8.0 | 0.00 | 0.00 | 0.00 | 65 | 1015.1 |
| 20260501141507 | 12 | 34 | 1.6 | 9.7 | 0.00 | 0.00 | 0.00 | 67 | 1014.8 |
| 20260501140006 | 11 | 347 | 0.0 | 8.0 | 0.00 | 0.00 | 0.00 | 70 | 1014.8 |